Terminal Aerodrome Forecast
Issued by NWS Boise, ID

Home | Current Version | Previous Version | Text Only | Print | Product List | Glossary On
Versions: 1 2 3 4 5 6 7 8 9 10 11 12 13
000
FTUS45 KBOI 181729
TAFBNO
TAF
KBNO 181729Z 1818/1918 28008KT P6SM SKC
     FM190500 VRB04KT P6SM SKC=

USA.gov is the U.S. government's official web portal to all federal, state and local government web resources and services.